When you browse on this site, cookies collect data to enhance your experience and personalize the content and advertising you see.
Visit our Privacy Policy to learn more. By continuing to use the site, you agree to this use of cookies and data.
  • In Österreich
  • Länderverzeichnis
  • Für 7 Tage
  • Wassertemperatur
  • Satellitenkarten
  • Wetterkarte
  • News
  • Widgets
  • user-avatar
    Anmelden

    Stündliche Wetter Perth

    Heute, 18 Juli, Donnerstag

    Zeit Temperatur Niederschläge Wind Luftdruck Luftfeuchtigkeit
    00:00 +14°C° 0 mm 1 m/S 764 mmHg 81%
    01:00 +14°C° 0 mm 1 m/S 764 mmHg 81%
    02:00 +14°C° 0 mm 1 m/S 763 mmHg 84%
    03:00 +14°C° 0 mm 1 m/S 763 mmHg 85%
    04:00 +14°C° 0 mm 1 m/S 763 mmHg 86%
    05:00 +14°C° 0 mm 2 m/S 763 mmHg 86%
    06:00 +14°C° 0.1 mm 2 m/S 763 mmHg 86%
    07:00 +14°C° 0.1 mm 2 m/S 763 mmHg 85%
    08:00 +14°C° 0 mm 1 m/S 764 mmHg 84%
    09:00 +16°C° 0 mm 1 m/S 764 mmHg 80%
    10:00 +18°C° 0 mm 1 m/S 763 mmHg 75%
    11:00 +18°C° 0 mm 2 m/S 763 mmHg 71%
    12:00 +19°C° 0.2 mm 1 m/S 763 mmHg 74%
    13:00 +19°C° 0.2 mm 1 m/S 762 mmHg 76%
    14:00 +20°C° 0 mm 1 m/S 761 mmHg 75%
    15:00 +19°C° 0.3 mm 1 m/S 761 mmHg 77%
    16:00 +19°C° 0.3 mm 1 m/S 761 mmHg 79%
    17:00 +19°C° 0.3 mm 1 m/S 761 mmHg 81%
    18:00 +18°C° 0.4 mm 1 m/S 761 mmHg 82%
    19:00 +18°C° 0.4 mm 1 m/S 761 mmHg 84%
    20:00 +16°C° 0.4 mm 1 m/S 761 mmHg 85%
    21:00 +16°C° 0.1 mm 2 m/S 760 mmHg 87%
    22:00 +15°C° 0.1 mm 2 m/S 760 mmHg 88%
    23:00 +15°C° 0.1 mm 2 m/S 760 mmHg 89%

    Morgen, 19 Juli, Freitag

    Zeit Temperatur Niederschläge Wind Luftdruck Luftfeuchtigkeit
    00:00 +14°C° 0.1 mm 3 m/S 760 mmHg 90%
    01:00 +14°C° 0.1 mm 3 m/S 759 mmHg 91%
    02:00 +13°C° 0.1 mm 3 m/S 758 mmHg 91%
    03:00 +13°C° 0.2 mm 3 m/S 758 mmHg 90%
    04:00 +13°C° 0.2 mm 4 m/S 758 mmHg 89%
    05:00 +13°C° 0.2 mm 4 m/S 757 mmHg 88%
    06:00 +13°C° 0.5 mm 4 m/S 757 mmHg 88%
    07:00 +13°C° 0.5 mm 3 m/S 757 mmHg 87%
    08:00 +14°C° 0.5 mm 3 m/S 757 mmHg 87%
    09:00 +16°C° 0.1 mm 3 m/S 756 mmHg 84%
    10:00 +17°C° 0.1 mm 4 m/S 756 mmHg 80%
    11:00 +17°C° 0.1 mm 4 m/S 755 mmHg 77%
    12:00 +17°C° 0.3 mm 6 m/S 754 mmHg 75%
    13:00 +17°C° 0.3 mm 7 m/S 753 mmHg 73%
    14:00 +18°C° 0.3 mm 9 m/S 752 mmHg 70%
    15:00 +17°C° 1.6 mm 9 m/S 752 mmHg 71%
    16:00 +17°C° 1.6 mm 10 m/S 752 mmHg 72%
    17:00 +16°C° 1.6 mm 10 m/S 752 mmHg 72%
    18:00 +14°C° 0.6 mm 10 m/S 753 mmHg 75%
    19:00 +13°C° 0.6 mm 9 m/S 754 mmHg 78%
    20:00 +12°C° 0.6 mm 9 m/S 754 mmHg 81%
    21:00 +12°C° 0.9 mm 9 m/S 755 mmHg 78%
    22:00 +12°C° 0.9 mm 8 m/S 756 mmHg 75%
    23:00 +11°C° 0.9 mm 8 m/S 757 mmHg 72%

    übermorgen, 20 Juli, Samstag

    Zeit Temperatur Niederschläge Wind Luftdruck Luftfeuchtigkeit
    00:00 +11°C° 0.3 mm 7 m/S 757 mmHg 72%
    01:00 +11°C° 0.3 mm 6 m/S 757 mmHg 72%
    02:00 +11°C° 0.3 mm 6 m/S 758 mmHg 72%
    03:00 +12°C° 0.1 mm 5 m/S 758 mmHg 73%
    04:00 +12°C° 0.1 mm 5 m/S 759 mmHg 73%
    05:00 +11°C° 0.1 mm 4 m/S 759 mmHg 74%
    06:00 +12°C° 0.1 mm 4 m/S 760 mmHg 74%
    07:00 +12°C° 0.1 mm 4 m/S 761 mmHg 74%
    08:00 +12°C° 0.1 mm 4 m/S 761 mmHg 73%
    09:00 +13°C° 0.1 mm 5 m/S 762 mmHg 70%
    10:00 +14°C° 0.1 mm 5 m/S 762 mmHg 66%
    11:00 +15°C° 0.1 mm 6 m/S 763 mmHg 62%
    12:00 +15°C° 0.1 mm 6 m/S 763 mmHg 62%
    13:00 +15°C° 0.1 mm 5 m/S 762 mmHg 63%
    14:00 +15°C° 0.1 mm 5 m/S 762 mmHg 63%
    15:00 +14°C° 0 mm 5 m/S 762 mmHg 65%
    16:00 +14°C° 0 mm 4 m/S 763 mmHg 66%
    17:00 +14°C° 0 mm 4 m/S 763 mmHg 68%
    18:00 +14°C° 0 mm 4 m/S 763 mmHg 70%
    19:00 +13°C° 0 mm 3 m/S 764 mmHg 71%
    20:00 +14°C° 0 mm 2 m/S 764 mmHg 73%
    21:00 +13°C° 0.1 mm 3 m/S 764 mmHg 74%
    22:00 +13°C° 0.1 mm 3 m/S 764 mmHg 74%
    23:00 +13°C° 0.1 mm 3 m/S 764 mmHg 75%

    21 Juli, Sonntag

    Zeit Temperatur Niederschläge Wind Luftdruck Luftfeuchtigkeit
    00:00 +13°C° 0 mm 3 m/S 764 mmHg 75%
    01:00 +13°C° 0 mm 3 m/S 763 mmHg 75%
    02:00 +13°C° 0 mm 3 m/S 763 mmHg 74%
    03:00 +13°C° 0.1 mm 4 m/S 763 mmHg 76%
    04:00 +14°C° 0.1 mm 4 m/S 762 mmHg 78%
    05:00 +14°C° 0.1 mm 5 m/S 762 mmHg 79%
    06:00 +14°C° 0.2 mm 5 m/S 762 mmHg 80%
    07:00 +14°C° 0.2 mm 5 m/S 762 mmHg 80%
    08:00 +15°C° 0.2 mm 4 m/S 763 mmHg 80%
    09:00 +15°C° 0.2 mm 5 m/S 762 mmHg 77%
    10:00 +16°C° 0.2 mm 6 m/S 762 mmHg 74%
    11:00 +17°C° 0.2 mm 6 m/S 762 mmHg 71%
    12:00 +17°C° 0.2 mm 7 m/S 761 mmHg 71%
    13:00 +17°C° 0.2 mm 7 m/S 761 mmHg 70%
    14:00 +17°C° 0.2 mm 7 m/S 760 mmHg 69%
    15:00 +17°C° 0.2 mm 6 m/S 760 mmHg 70%
    16:00 +16°C° 0.2 mm 6 m/S 760 mmHg 71%
    17:00 +16°C° 0.2 mm 6 m/S 761 mmHg 72%
    18:00 +16°C° 0.3 mm 5 m/S 761 mmHg 74%
    19:00 +16°C° 0.3 mm 5 m/S 761 mmHg 76%
    20:00 +15°C° 0.3 mm 5 m/S 761 mmHg 78%
    21:00 +15°C° 0.3 mm 5 m/S 761 mmHg 78%
    22:00 +15°C° 0.3 mm 5 m/S 761 mmHg 78%
    23:00 +15°C° 0.3 mm 4 m/S 761 mmHg 78%

    22 Juli, Montag

    Zeit Temperatur Niederschläge Wind Luftdruck Luftfeuchtigkeit
    00:00 +15°C° 0.2 mm 4 m/S 761 mmHg 78%
    01:00 +15°C° 0.2 mm 5 m/S 761 mmHg 78%
    02:00 +15°C° 0.2 mm 5 m/S 761 mmHg 78%
    03:00 +15°C° 0.3 mm 5 m/S 761 mmHg 78%
    04:00 +15°C° 0.3 mm 5 m/S 761 mmHg 78%
    05:00 +14°C° 0.3 mm 5 m/S 761 mmHg 77%
    06:00 +14°C° 0 mm 4 m/S 762 mmHg 78%
    07:00 +14°C° 0 mm 4 m/S 762 mmHg 79%
    08:00 +13°C° 0 mm 4 m/S 763 mmHg 80%
    09:00 +14°C° 0 mm 4 m/S 763 mmHg 76%
    10:00 +14°C° 0 mm 4 m/S 764 mmHg 71%
    11:00 +15°C° 0 mm 4 m/S 764 mmHg 67%
    12:00 +15°C° 0 mm 4 m/S 764 mmHg 64%
    13:00 +17°C° 0 mm 4 m/S 763 mmHg 62%
    14:00 +17°C° 0 mm 4 m/S 763 mmHg 59%
    15:00 +15°C° 0 mm 4 m/S 763 mmHg 61%
    16:00 +15°C° 0 mm 4 m/S 764 mmHg 64%
    17:00 +14°C° 0 mm 4 m/S 764 mmHg 66%
    18:00 +13°C° 0 mm 3 m/S 765 mmHg 67%
    19:00 +12°C° 0 mm 3 m/S 765 mmHg 69%
    20:00 +12°C° 0 mm 3 m/S 766 mmHg 71%
    21:00 +11°C° 0 mm 3 m/S 766 mmHg 73%
    22:00 +12°C° 0 mm 2 m/S 766 mmHg 75%
    23:00 +10°C° 0 mm 2 m/S 767 mmHg 76%

    23 Juli, Dienstag

    Zeit Temperatur Niederschläge Wind Luftdruck Luftfeuchtigkeit
    00:00 +10°C° 0 mm 2 m/S 767 mmHg 77%
    01:00 +9°C° 0 mm 2 m/S 767 mmHg 77%
    02:00 +9°C° 0 mm 2 m/S 767 mmHg 78%
    03:00 +9°C° 0 mm 2 m/S 767 mmHg 78%
    04:00 +9°C° 0 mm 1 m/S 767 mmHg 78%
    05:00 +9°C° 0 mm 1 m/S 767 mmHg 77%
    06:00 +8°C° 0 mm 2 m/S 768 mmHg 77%
    07:00 +8°C° 0 mm 2 m/S 768 mmHg 76%
    08:00 +8°C° 0 mm 2 m/S 769 mmHg 75%
    09:00 +10°C° 0 mm 2 m/S 769 mmHg 70%
    10:00 +13°C° 0 mm 2 m/S 769 mmHg 64%
    11:00 +15°C° 0 mm 2 m/S 769 mmHg 58%
    12:00 +15°C° 0 mm 2 m/S 769 mmHg 56%
    13:00 +16°C° 0 mm 2 m/S 768 mmHg 55%
    14:00 +16°C° 0 mm 1 m/S 768 mmHg 53%
    15:00 +16°C° 0 mm 1 m/S 768 mmHg 57%
    16:00 +15°C° 0 mm 2 m/S 768 mmHg 60%
    17:00 +15°C° 0 mm 2 m/S 768 mmHg 64%
    18:00 +14°C° 0 mm 2 m/S 768 mmHg 66%
    19:00 +13°C° 0 mm 2 m/S 769 mmHg 69%
    20:00 +12°C° 0 mm 1 m/S 769 mmHg 72%
    21:00 +12°C° 0 mm 1 m/S 769 mmHg 72%
    22:00 +11°C° 0 mm 1 m/S 769 mmHg 73%
    23:00 +11°C° 0 mm 1 m/S 769 mmHg 74%
    Mehr zeigen